FW2883 Weather Reports


time (UTC)temp
F
wind
direction
speed
knots
gust
knots
rain 1hr
in
rain 24hr
in
rain mn
in
humidity
%
barometer
mb
20260906114522 67 117 0.0 0.0 0.00 0.00 0.00 97 1019.2
20260906113011 67 117 0.0 1.7 0.00 0.00 0.00 97 1019.0
20260906111511 67 117 0.0 2.6 0.00 0.00 0.00 98 1018.9
20260906110010 67 114 0.0 1.7 0.00 0.00 0.00 97 1018.9
20260906104511 67 114 0.0 1.7 0.00 0.00 0.00 97 1018.9
20260906103011 67 116 0.9 1.7 0.00 0.00 0.00 98 1018.9
20260906101509 66 117 0.0 0.9 0.00 0.00 0.00 98 1019.0
20260906100007 65 117 0.0 0.0 0.00 0.00 0.00 97 1019.0
20260906094504 66 117 0.0 0.0 0.00 0.00 0.00 96 1018.9
20260906093007 67 117 0.0 0.0 0.00 0.00 0.00 97 1018.5
20260906091501 67 117 0.0 1.7 0.00 0.00 0.00 97 1018.6
20260906090138 67 109 0.0 0.9 0.00 0.00 0.00 97 1018.1
20260906084611 67 109 0.0 1.7 0.00 0.00 0.00 97 1018.1
20260906083056 67 109 0.0 1.7 0.00 0.00 0.00 97 1018.1
20260906081600 68 109 0.0 2.6 0.00 0.00 0.00 97 1018.0
20260906080105 68 115 0.9 3.5 0.00 0.00 0.00 97 1017.9
20260906074558 68 117 0.9 3.5 0.00 0.00 0.00 97 1017.9
20260906073054 68 103 0.0 0.0 0.00 0.00 0.00 97 1017.9
20260906071552 68 105 0.0 0.0 0.00 0.00 0.00 97 1018.2
20260906070051 68 113 0.0 0.0 0.00 0.00 0.00 97 1018.2
20260906064550 68 109 0.0 0.0 0.00 0.00 0.00 96 1018.4
20260906063053 68 109 0.0 0.0 0.00 0.00 0.00 96 1018.4
20260906061551 69 109 0.0 0.0 0.00 0.00 0.00 96 1018.5
20260906060045 69 109 0.0 0.0 0.00 0.00 0.00 96 1018.3
20260906054547 69 109 0.0 0.0 0.00 0.00 0.00 96 1018.3
20260906053052 70 109 0.0 0.0 0.00 0.00 0.00 96 1018.4
20260906051540 70 109 0.0 1.7 0.00 0.00 0.00 96 1018.2
20260906050038 70 109 0.0 1.7 0.00 0.00 0.00 96 1017.9
20260906044536 71 109 0.0 2.6 0.00 0.00 0.00 96 1018.0
20260906043037 71 95 0.0 1.7 0.00 0.00 0.00 96 1017.9
20260906041546 71 86 0.0 0.9 0.00 0.00 0.00 96 1018.0
20260906040035 71 84 0.0 0.9 0.00 0.00 0.00 96 1018.1
20260906034541 71 84 0.0 0.9 0.00 0.00 0.00 96 1017.9
20260906033035 71 84 0.0 0.9 0.00 0.00 0.00 95 1017.9
20260906031537 71 84 0.0 0.9 0.00 0.00 0.00 95 1017.7
20260906030035 72 84 0.0 0.0 0.00 0.00 0.00 94 1017.6
20260906024528 72 84 0.0 0.0 0.00 0.00 0.00 94 1017.5
20260906023026 72 84 0.0 0.0 0.00 0.00 0.00 94 1017.2
20260906021525 73 84 0.0 0.0 0.00 0.00 0.00 94 1017.1
20260906020024 73 84 0.0 0.0 0.00 0.00 0.00 94 1016.9
20260906014539 74 84 0.0 0.0 0.00 0.00 0.00 93 1016.6
20260906013025 74 84 0.0 0.0 0.00 0.00 0.00 92 1016.5
20260906011523 75 80 0.0 0.9 0.00 0.00 0.00 92 1016.4
20260906010051 76 80 0.0 1.7 0.00 0.00 0.00 91 1016.1
20260906004520 77 77 0.0 2.6 0.00 0.00 0.00 90 1015.9
20260906003021 78 82 0.0 3.5 0.00 0.00 0.00 90 1015.8
20260906001533 79 88 0.9 3.5 0.00 0.00 0.00 89 1015.8
20260906000020 80 71 0.9 7.0 0.00 0.00 0.00 88 1015.8
20260905234522 81 58 0.9 7.0 0.00 0.00 0.00 87 1015.6
20260905233019 81 89 1.7 7.8 0.00 0.00 0.00 87 1015.3
20260905231533 82 76 0.9 3.5 0.00 0.00 0.00 85 1015.7
20260905230019 84 82 2.6 5.2 0.00 0.00 0.00 83 1015.4
20260905224520 84 90 1.7 5.2 0.00 0.00 0.00 83 1015.5
20260905223027 85 76 0.0 4.3 0.00 0.00 0.00 82 1015.6
20260905221515 86 130 2.6 7.0 0.00 0.00 0.00 80 1015.2
20260905220018 86 113 3.5 8.7 0.00 0.00 0.00 79 1015.0
20260905214515 87 107 2.6 10.4 0.00 0.00 0.00 80 1014.6
20260905213019 87 74 5.2 10.4 0.00 0.00 0.00 78 1014.6
20260905211533 87 73 5.2 10.4 0.00 0.00 0.00 77 1014.6
20260905210013 87 30 4.3 10.4 0.00 0.00 0.00 79 1014.4
20260905204522 87 71 4.3 9.6 0.00 0.00 0.00 79 1014.9
20260905203009 87 47 2.6 7.8 0.00 0.00 0.00 82 1015.4
20260905201509 86 104 3.5 8.7 0.00 0.00 0.00 81 1015.5
20260905200009 87 75 1.7 7.0 0.00 0.00 0.00 81 1015.6
20260905194507 87 125 2.6 8.7 0.00 0.00 0.00 82 1016.0
20260905193006 87 90 4.3 9.6 0.00 0.00 0.00 82 1016.0
20260905191509 86 24 2.6 7.8 0.00 0.00 0.00 83 1016.3
20260905190004 86 37 7.0 11.3 0.00 0.00 0.00 81 1016.6
20260905184503 86 11 4.3 9.6 0.00 0.00 0.00 80 1016.7
20260905183002 86 29 3.5 7.8 0.00 0.00 0.00 80 1016.7
20260905181503 86 54 1.7 8.7 0.00 0.00 0.00 82 1016.8
20260905180103 85 12 4.3 7.8 0.00 0.00 0.00 81 1017.0
20260905174556 85 12 3.5 5.2 0.00 0.00 0.00 81 1017.1
20260905173054 85 42 2.6 7.0 0.00 0.00 0.00 83 1017.0
20260905171556 84 23 0.0 5.2 0.00 0.00 0.00 84 1017.0
20260905170104 84 113 1.7 5.2 0.00 0.00 0.00 83 1016.9
20260905164554 84 76 2.6 5.2 0.00 0.00 0.00 84 1016.9
20260905163048 83 51 3.5 8.7 0.00 0.00 0.00 83 1016.9
20260905161546 83 73 2.6 7.0 0.00 0.00 0.00 83 1017.0
20260905160044 83 360 2.6 7.0 0.00 0.00 0.00 83 1017.1
20260905154541 82 24 1.7 4.3 0.00 0.00 0.00 84 1016.7
20260905153039 82 55 2.6 5.2 0.00 0.00 0.00 84 1016.9
20260905151538 82 360 1.7 6.1 0.00 0.00 0.00 85 1016.8
20260905150034 81 76 0.0 4.3 0.00 0.00 0.00 87 1016.5
20260905144534 80 17 2.6 7.0 0.00 0.00 0.00 88 1016.3
20260905143026 78 101 0.9 4.3 0.00 0.00 0.00 92 1016.1
20260905141522 76 75 0.9 3.5 0.00 0.00 0.00 94 1016.0
20260905140018 75 48 0.0 2.6 0.00 0.00 0.00 96 1016.0
20260905134512 74 20 3.5 5.2 0.00 0.00 0.00 96 1016.2
20260905133008 73 11 0.0 4.3 0.00 0.00 0.00 97 1015.8
20260905131504 72 9 0.0 3.5 0.00 0.00 0.00 97 1015.6
20260905130004 71 11 0.0 3.5 0.00 0.00 0.00 97 1015.4
20260905124506 71 13 0.0 2.6 0.00 0.00 0.00 97 1015.2
20260905123106 70 13 1.7 2.6 0.00 0.00 0.00 97 1015.1
20260905121558 70 13 0.0 0.0 0.00 0.00 0.00 97 1014.9
20260905120057 70 13 0.0 0.9 0.00 0.00 0.00 97 1014.7